[[{"header":{"parameterUnit":"m.s-1","parameterCategory":1,"la1":30.2991,"la2":30.254,"lo1":-89.0895,"lo2":-89.0444,"dy":0.0017,"dx":0.0017,"nx":28,"ny":28,"refTime":"2023-09-10T03:00:00:Z","depth":0,"parameterNumber":2,"parameterNumberName":"U-component_of_WINDS"},"data":[0,0,0,0,0,0,0,0,0,0,0,0,0,0,0,0,0,0,0,0,0,0,0,0,0,0,0,0,0,0,0,0,0,0,0,0,0,0,0,0,0,0,0,0,0,0,0,0,0,0,0,0,0,0,0,0,0,0,-1.4736,-1.4735,0,-1.4716,-1.4716,-1.4716,-1.4697,-1.4697,-1.4696,-1.4696,-1.4674,-1.4674,-1.4674,0,0,0,0,0,0,0,0,0,0,0,0,0,-1.4752,-1.4752,-1.4736,-1.4735,-1.4735,-1.4716,-1.4716,-1.4716,-1.4697,-1.4697,-1.4696,-1.4696,-1.4674,-1.4674,-1.4674,0,0,0,0,0,0,0,0,0,0,0,0,0,-1.474,-1.4752,-1.4736,-1.4723,-1.4722,-1.4716,-1.4716,-1.4716,-1.4697,-1.4697,-1.4696,-1.4696,-1.4675,-1.4674,-1.4674,-1.4678,0,0,-1.4672,-1.4672,0,0,0,0,0,0,0,0,-1.4741,-1.4739,-1.4725,-1.4724,-1.4723,-1.4709,-1.4714,-1.4703,-1.4697,-1.4706,-1.4696,-1.4696,-1.4686,-1.4684,-1.4682,-1.4677,-1.4676,-1.4672,-1.4672,-1.4671,-1.4671,0,0,0,0,0,0,0,-1.4742,-1.474,-1.4728,-1.4725,-1.4724,-1.4718,-1.4716,-1.4712,-1.4698,-1.4706,-1.4704,-1.4702,-1.4685,-1.4682,-1.4681,-1.4675,-1.4672,-1.4671,-1.4671,-1.4671,-1.4669,-1.4669,0,0,0,0,0,0,-1.4745,-1.4741,-1.4728,-1.4727,-1.4731,-1.4718,-1.4715,-1.4714,-1.4698,-1.4696,-1.4703,-1.4701,-1.4683,-1.4682,-1.468,-1.4682,-1.4671,-1.4671,-1.4671,-1.4669,-1.4669,-1.4669,0,0,0,0,0,0,-1.4745,-1.4744,-1.4729,-1.4734,-1.4731,-1.4718,-1.4716,-1.4713,-1.471,-1.4696,-1.4693,-1.4702,-1.4683,-1.4681,-1.4678,-1.4681,-1.4671,-1.467,-1.4668,-1.4669,-1.4669,-1.4686,0,0,0,0,0,0,-1.4746,-1.4744,-1.4747,-1.4734,-1.4731,-1.4729,-1.4716,-1.4713,-1.471,-1.4708,-1.4695,-1.4693,-1.4682,-1.4679,-1.4677,-1.468,-1.467,-1.4668,-1.4668,-1.4669,-1.4685,-1.4687,-1.4689,0,0,0,0,0,-1.4746,-1.4752,-1.4747,-1.4746,-1.4734,-1.4729,-1.4727,-1.4716,-1.471,-1.4712,-1.4702,-1.4693,-1.4681,-1.4678,-1.4677,-1.4679,-1.4668,-1.4668,-1.4669,-1.4685,-1.4687,-1.4689,0,0,0,0,0,0,-1.4766,-1.4751,-1.4744,-1.4747,-1.4739,-1.4726,-1.4728,-1.4719,-1.4713,-1.4711,-1.4697,-1.4694,-1.4692,-1.4685,-1.4683,-1.468,-1.4673,-1.4673,-1.4685,-1.4687,-1.4689,-1.469,-1.4669,0,0,0,0,0,-1.4771,-1.4768,-1.4755,-1.4758,-1.4755,-1.4742,-1.4739,-1.4731,-1.4722,-1.4719,-1.4709,-1.47,-1.4694,-1.469,-1.4684,-1.4684,-1.468,-1.4685,-1.4686,-1.4688,-1.4688,-1.4685,-1.4686,-1.4671,-1.4671,-1.4671,0,0,-1.478,-1.4771,-1.4771,-1.4762,-1.4755,-1.4751,-1.4739,-1.4737,-1.4733,-1.4718,-1.4714,-1.4706,-1.4695,-1.4693,-1.4692,-1.4688,-1.4691,-1.4689,-1.469,-1.4689,-1.4686,-1.4687,-1.4689,-1.4672,-1.4672,-1.4671,0,0,-1.4795,-1.479,-1.479,-1.4783,-1.4773,-1.4764,-1.4764,-1.4751,-1.4746,-1.4741,-1.4729,-1.4724,-1.4715,-1.4706,-1.4701,-1.471,-1.4701,-1.4708,-1.4717,-1.4714,-1.4715,-1.4716,-1.4718,-1.4719,-1.4709,-1.4709,-1.4709,0,-1.4808,-1.4804,-1.4792,-1.4789,-1.4785,-1.477,-1.477,-1.4763,-1.4751,-1.4748,-1.4743,-1.4729,-1.472,-1.4715,-1.4717,-1.4714,-1.4712,-1.471,-1.4716,-1.4717,-1.4718,-1.4719,-1.472,-1.4709,-1.4709,-1.4709,-1.4709,0,-1.4819,-1.4816,-1.4818,-1.4806,-1.4801,-1.48,-1.4786,-1.4783,-1.4774,-1.4765,-1.4759,-1.4748,-1.4738,-1.4737,-1.4729,-1.4729,-1.4726,-1.4719,-1.4711,-1.4721,-1.4721,-1.4722,-1.4711,-1.471,-1.471,-1.471,0,0,-1.4848,-1.4828,-1.4829,-1.4822,-1.4808,-1.4805,-1.4801,-1.4792,-1.4788,-1.478,-1.4775,-1.4766,-1.4759,-1.4752,-1.4743,-1.4741,-1.4746,-1.4733,-1.4733,-1.4735,-1.4743,-1.4748,-1.4749,-1.4739,-1.4739,-1.4739,-1.4744,0,-1.4859,-1.4854,-1.4842,-1.4839,-1.4835,-1.482,-1.4816,-1.4807,-1.4797,-1.4791,-1.478,-1.4773,-1.4765,-1.476,-1.4758,-1.4746,-1.4747,-1.4745,-1.4734,-1.4733,-1.4737,-1.475,-1.4756,-1.4761,-1.4744,-1.4744,-1.4744,0,-1.4873,-1.4865,-1.4862,-1.4846,-1.4844,-1.4842,-1.483,-1.4825,-1.4813,-1.4806,-1.4798,-1.4787,-1.478,-1.4773,-1.4763,-1.4762,-1.4756,-1.4749,-1.4749,-1.4747,-1.4739,-1.4747,-1.4762,-1.4762,-1.4745,-1.4745,-1.4745,0,-1.4892,-1.488,-1.4877,-1.4872,-1.4854,-1.4852,-1.4844,-1.4831,-1.4826,-1.4815,-1.4811,-1.48,-1.4794,-1.4785,-1.477,-1.4767,-1.4761,-1.4753,-1.4754,-1.4754,-1.4753,-1.4754,-1.4766,-1.4751,-1.4751,-1.4751,-1.4751,0,-1.4906,-1.4904,-1.4884,-1.4882,-1.4879,-1.4864,-1.4861,-1.4852,-1.484,-1.4834,-1.482,-1.4815,-1.4796,-1.4788,-1.4777,-1.4769,-1.4766,-1.4759,-1.4756,-1.476,-1.4761,-1.4756,-1.4755,-1.4751,-1.4751,-1.4751,-1.4751,0,-1.4927,-1.4914,-1.4908,-1.4891,-1.4887,-1.4885,-1.4869,-1.4865,-1.4855,-1.4847,-1.4844,-1.4827,-1.4816,-1.4801,-1.4786,-1.4778,-1.4771,-1.4767,-1.4776,-1.4774,-1.4775,-1.4775,-1.4785,-1.4785,-1.477,-1.477,-1.477,0,-1.4936,-1.4935,-1.4917,-1.4912,-1.4905,-1.4898,-1.4891,-1.4876,-1.487,-1.4854,-1.4851,-1.484,-1.483,-1.4813,-1.4798,-1.4785,-1.478,-1.4784,-1.4778,-1.4781,-1.4778,-1.4779,-1.4777,-1.4786,-1.4786,-1.4786,-1.4786,0,-1.4954,-1.4947,-1.4939,-1.4928,-1.4921,-1.4911,-1.4901,-1.4898,-1.4879,-1.4873,-1.4862,-1.4854,-1.4838,-1.4825,-1.4811,-1.4801,-1.479,-1.4788,-1.4787,-1.4791,-1.4796,-1.4792,-1.4779,-1.4788,-1.4788,-1.4788,-1.4788,-1.4788,-1.4968,-1.4965,-1.4952,-1.4943,-1.4933,-1.4923,-1.4918,-1.4906,-1.4897,-1.4883,-1.4874,-1.4863,-1.4848,-1.4827,-1.4818,-1.4808,-1.4803,-1.4803,-1.4802,-1.4802,-1.4803,-1.4798,-1.4805,-1.4805,-1.4805,-1.4805,-1.4805,0,-1.4984,-1.4974,-1.4966,-1.4952,-1.4944,-1.4935,-1.4922,-1.4916,-1.4907,-1.4894,-1.4884,-1.487,-1.4858,-1.4841,-1.4827,-1.4822,-1.4817,-1.4819,-1.4819,-1.4816,-1.4809,-1.481,-1.4824,-1.4824,-1.4824,-1.4824,-1.4824,-1.4824,-1.4991,-1.4985,-1.4976,-1.4964,-1.4954,-1.4944,-1.4937,-1.4927,-1.4917,-1.4902,-1.4892,-1.4881,-1.4866,-1.4851,-1.4838,-1.4834,-1.4829,-1.4832,-1.4826,-1.4819,-1.4817,-1.4816,-1.4817,-1.4832,-1.4832,-1.4834,-1.4834,-1.4834]},{"header":{"parameterUnit":"m.s-1","parameterCategory":1,"la1":30.2991,"la2":30.254,"lo1":-89.0895,"lo2":-89.0444,"dy":0.0017,"dx":0.0017,"nx":28,"ny":28,"refTime":"2023-09-10T03:00:00:Z","depth":0,"parameterNumber":3,"parameterNumberName":"V-component_of_WINDS"},"data":[0,0,0,0,0,0,0,0,0,0,0,0,0,0,0,0,0,0,0,0,0,0,0,0,0,0,0,0,0,0,0,0,0,0,0,0,0,0,0,0,0,0,0,0,0,0,0,0,0,0,0,0,0,0,0,0,0,0,-2.1876,-2.1876,0,-2.1902,-2.1902,-2.1902,-2.1917,-2.1917,-2.1917,-2.1917,-2.1942,-2.1942,-2.1943,0,0,0,0,0,0,0,0,0,0,0,0,0,-2.1835,-2.1835,-2.1876,-2.1876,-2.1876,-2.1902,-2.1902,-2.1902,-2.1917,-2.1917,-2.1917,-2.1917,-2.1941,-2.1942,-2.1943,0,0,0,0,0,0,0,0,0,0,0,0,0,-2.1856,-2.1836,-2.1876,-2.1887,-2.1888,-2.1902,-2.1902,-2.1903,-2.1917,-2.1917,-2.1917,-2.1917,-2.1941,-2.1942,-2.1943,-2.1947,0,0,-2.1946,-2.1946,0,0,0,0,0,0,0,0,-2.1855,-2.1857,-2.1885,-2.1886,-2.1887,-2.1906,-2.1897,-2.1918,-2.1917,-2.1906,-2.1917,-2.1917,-2.193,-2.1931,-2.1936,-2.1949,-2.195,-2.1946,-2.1946,-2.1947,-2.1947,0,0,0,0,0,0,0,-2.1853,-2.1856,-2.1886,-2.1885,-2.1887,-2.1889,-2.1892,-2.1901,-2.1917,-2.1907,-2.1908,-2.1911,-2.193,-2.1935,-2.1937,-2.195,-2.1946,-2.1947,-2.1947,-2.1948,-2.1965,-2.1964,0,0,0,0,0,0,-2.185,-2.1855,-2.1885,-2.1887,-2.1871,-2.189,-2.1893,-2.19,-2.1917,-2.192,-2.1911,-2.1911,-2.1934,-2.1936,-2.1938,-2.1943,-2.1947,-2.1948,-2.1948,-2.1965,-2.1965,-2.1964,0,0,0,0,0,0,-2.1849,-2.1853,-2.1884,-2.1871,-2.1875,-2.189,-2.1898,-2.19,-2.1905,-2.192,-2.1923,-2.1913,-2.1934,-2.1936,-2.1944,-2.1944,-2.1948,-2.1949,-2.1965,-2.1965,-2.1964,-2.1953,0,0,0,0,0,0,-2.1848,-2.1852,-2.1855,-2.1871,-2.1876,-2.1891,-2.1898,-2.1901,-2.1907,-2.1908,-2.1923,-2.1925,-2.1934,-2.1943,-2.1945,-2.1945,-2.195,-2.1965,-2.1965,-2.1965,-2.1954,-2.1953,-2.1952,0,0,0,0,0,-2.1847,-2.1851,-2.1855,-2.1859,-2.188,-2.1891,-2.1894,-2.1905,-2.1907,-2.1909,-2.1918,-2.1925,-2.1943,-2.1944,-2.1947,-2.1946,-2.1965,-2.1965,-2.1965,-2.1954,-2.1953,-2.1952,0,0,0,0,0,0,-2.1835,-2.1854,-2.1858,-2.1868,-2.1878,-2.1894,-2.1897,-2.1903,-2.1912,-2.1913,-2.1925,-2.1928,-2.1934,-2.1941,-2.1941,-2.195,-2.1955,-2.1955,-2.1946,-2.1945,-2.1944,-2.1942,-2.195,0,0,0,0,0,-2.1833,-2.1842,-2.1858,-2.1865,-2.1869,-2.1882,-2.1888,-2.1895,-2.1905,-2.1909,-2.1919,-2.1928,-2.1936,-2.1941,-2.1949,-2.1954,-2.1957,-2.1956,-2.1955,-2.1954,-2.1954,-2.1955,-2.1954,-2.1964,-2.1964,-2.1964,0,0,-2.1831,-2.1842,-2.1847,-2.1863,-2.1871,-2.1878,-2.1886,-2.1894,-2.1899,-2.191,-2.1918,-2.1925,-2.1936,-2.1942,-2.1946,-2.1948,-2.1951,-2.1953,-2.1953,-2.1953,-2.1955,-2.1954,-2.1953,-2.1963,-2.1964,-2.1964,0,0,-2.1829,-2.1839,-2.1845,-2.1853,-2.1866,-2.1874,-2.1875,-2.1889,-2.1895,-2.1903,-2.1911,-2.1916,-2.193,-2.1937,-2.1942,-2.194,-2.1946,-2.1942,-2.1937,-2.1939,-2.1938,-2.1937,-2.1935,-2.1934,-2.1942,-2.1942,-2.1942,0,-2.1824,-2.1836,-2.1848,-2.1855,-2.186,-2.1871,-2.1876,-2.1883,-2.1897,-2.1901,-2.1903,-2.1919,-2.1927,-2.1934,-2.1934,-2.1938,-2.1939,-2.1941,-2.1937,-2.1937,-2.1936,-2.1934,-2.1934,-2.1942,-2.1942,-2.1942,-2.1942,0,-2.1828,-2.1837,-2.184,-2.1853,-2.1859,-2.1866,-2.1876,-2.1881,-2.1887,-2.1894,-2.1901,-2.1911,-2.192,-2.1922,-2.1929,-2.193,-2.1931,-2.1935,-2.194,-2.1935,-2.1933,-2.1932,-2.1941,-2.1941,-2.1941,-2.1941,0,0,-2.1822,-2.184,-2.1841,-2.1846,-2.1859,-2.1865,-2.1871,-2.188,-2.1883,-2.1892,-2.1895,-2.1906,-2.1909,-2.1915,-2.1922,-2.1923,-2.1919,-2.1927,-2.1927,-2.1924,-2.1918,-2.1914,-2.1913,-2.1922,-2.1922,-2.1922,-2.1917,0,-2.1822,-2.1833,-2.1842,-2.1849,-2.1856,-2.1865,-2.1869,-2.1877,-2.1883,-2.1889,-2.1895,-2.1902,-2.1907,-2.191,-2.1912,-2.1919,-2.1917,-2.1919,-2.1925,-2.1925,-2.1921,-2.1913,-2.1909,-2.1904,-2.1917,-2.1917,-2.1916,0,-2.1823,-2.1831,-2.1839,-2.185,-2.1853,-2.1857,-2.1865,-2.187,-2.1878,-2.1883,-2.1888,-2.1895,-2.1899,-2.1903,-2.1908,-2.1909,-2.1912,-2.1915,-2.1915,-2.1916,-2.192,-2.1912,-2.1903,-2.1902,-2.1916,-2.1916,-2.1916,0,-2.1816,-2.1829,-2.1835,-2.1839,-2.1852,-2.1854,-2.1859,-2.1867,-2.1872,-2.1878,-2.188,-2.1887,-2.1891,-2.1895,-2.1903,-2.1905,-2.1907,-2.1912,-2.1909,-2.1909,-2.1909,-2.1909,-2.1899,-2.1912,-2.1912,-2.1912,-2.1912,0,-2.1815,-2.1819,-2.1831,-2.1835,-2.1839,-2.1848,-2.1852,-2.1858,-2.1864,-2.1868,-2.1876,-2.1879,-2.1889,-2.1893,-2.1899,-2.1901,-2.1903,-2.1905,-2.1907,-2.1904,-2.1904,-2.1906,-2.1906,-2.1912,-2.1912,-2.1912,-2.1912,0,-2.1808,-2.1816,-2.1823,-2.1834,-2.1836,-2.1839,-2.1848,-2.1851,-2.1857,-2.1861,-2.1862,-2.1872,-2.1876,-2.1884,-2.1891,-2.1895,-2.1896,-2.1899,-2.1893,-2.1894,-2.189,-2.189,-2.1881,-2.188,-2.1894,-2.1894,-2.1894,0,-2.1806,-2.1809,-2.182,-2.1823,-2.1828,-2.1833,-2.1837,-2.1845,-2.1849,-2.1857,-2.1858,-2.1863,-2.1868,-2.1875,-2.1881,-2.1886,-2.1889,-2.1885,-2.189,-2.1886,-2.1887,-2.1887,-2.1886,-2.1884,-2.1884,-2.1884,-2.1883,0,-2.1802,-2.1805,-2.1811,-2.1817,-2.1821,-2.1827,-2.1832,-2.1834,-2.1844,-2.1847,-2.1852,-2.1855,-2.1861,-2.1866,-2.1871,-2.1875,-2.188,-2.1882,-2.1881,-2.1879,-2.1875,-2.1875,-2.1889,-2.1882,-2.1882,-2.1882,-2.1882,-2.1882,-2.1796,-2.1799,-2.1806,-2.1811,-2.1816,-2.1821,-2.1823,-2.1829,-2.1834,-2.184,-2.1844,-2.1848,-2.1853,-2.1861,-2.1865,-2.1867,-2.1869,-2.1869,-2.1869,-2.1868,-2.1867,-2.1875,-2.1868,-2.1868,-2.1868,-2.1868,-2.1868,0,-2.1791,-2.1796,-2.1801,-2.1808,-2.1811,-2.1816,-2.1822,-2.1824,-2.1827,-2.1833,-2.1836,-2.184,-2.1844,-2.185,-2.1854,-2.1855,-2.1857,-2.1855,-2.1855,-2.1855,-2.1865,-2.1865,-2.1853,-2.1853,-2.1853,-2.1853,-2.1853,-2.1853,-2.1789,-2.1793,-2.1797,-2.1802,-2.1806,-2.181,-2.1813,-2.1817,-2.182,-2.1825,-2.1828,-2.1832,-2.1837,-2.1841,-2.1843,-2.1845,-2.1846,-2.1843,-2.1845,-2.1854,-2.1855,-2.1856,-2.1856,-2.1843,-2.1843,-2.1835,-2.1835,-2.1835]}]]